Regional Weather Roundup
Issued by NWS Bismarck, ND

Home | Current Version | Previous Version | Text Only | Print | Product List | Glossary On
Versions: 1 2 3 4 5 6 7 8 9 10 11 12 13 14 15 16 17 18 19 20 21 22 23 24 25 26 27 28 29 30 31 32 33 34 35 36 37 38 39 40 41 42 43 44 45 46 47 48 49 50
000
ASUS43 KBIS 231820
RWRBIS

NWR BROADCAST TEXT
NATIONAL WEATHER SERVICE BISMARCK ND
100 PM CDT WED JUL 23 2014

NOTE: "FAIR" INDICATES FEW OR NO CLOUDS BELOW 12,000 FEET WITH NO
SIGNIFICANT WEATHER AND/OR OBSTRUCTIONS TO VISIBILITY.


CITY           SKY/WX    TMP DP  RH WIND       PRES   REMARKS
WILLISTON      MOSUNNY   84  62  47 SE14      30.18F
MINOT          CLOUDY    71  64  78 E17       30.25F
MINOT AFB      CLOUDY    71  65  83 E18       30.25S
BISMARCK       MOSUNNY   77  62  59 SE17      30.25F
DICKINSON      MOSUNNY   79  65  62 SE17G24   30.19F
GARRISON         N/A     75  66  73 SE12      30.24F
HETTINGER ARPT SUNNY     80  62  54 SE18G25   30.21F
JAMESTOWN      SUNNY     75  55  49 S7        30.29F
CARRINGTON     MOCLDY    72  64  78 SE9       30.30F
CROSBY           N/A     75  72  88 E15G21    30.22F
HARVEY         MOCLDY    70  64  83 E13       30.29F
HAZEN          MOCLDY    77  64  65 SE15      30.23F
LINTON         MOCLDY    81  63  54 S14G22    30.25F
MANDAN         CLOUDY    75  63  64 SE14G22   30.26F
RUGBY          FAIR      66  57  72 E13       30.30S
STANLEY        MOCLDY    75  68  78 SE13G20   30.24S
TIOGA          MOCLDY    77  68  73 E15G23    30.24F
WATFORD CITY   FAIR      82  63  51 SE16G23   30.17F
$$

CITY           SKY/WX    TMP DP  RH WIND       PRES   REMARKS
GRAND FORKS    PTSUNNY   71  57  61 N8        30.29F
GRAND FORKS AF MOSUNNY   71  57  61 NE8       30.30F
DEVILS LAKE    MOSUNNY   70  54  56 E7        30.29F
FARGO          CLOUDY    75  58  55 N6        30.27F
CANDO          CLOUDY    68  54  60 E8        30.32F
CAVALIER       FAIR      68  54  60 N8        30.31F
GRAFTON        FAIR      68  55  64 N7        30.30F
GWINNER        CLEAR     77  57  50 SW6       30.30S
LANGDON        FAIR      70  54  56 E8        30.32F
ROLLA          FAIR      68  54  60 E12       30.33F
WALHALLA         N/A     68  55  64 E5          N/A
$$

CITY           SKY/WX    TMP DP  RH WIND       PRES   REMARKS
ABERDEEN       MOSUNNY   77  54  44 S10G16    30.27F
MOBRIDGE       PTSUNNY   79  61  53 SE16      30.23F
BUFFALO          N/A     79  62  56 E12       30.13F
RAPID CITY     SUNNY     78  63  59 SE16      30.23F
GLASGOW        MOSUNNY   84  59  42 E17       30.11F
SIDNEY         SUNNY     84  63  48 SE13G20   30.15F
WOLF POINT     MOSUNNY   87  60  40 E15       30.12F
GLENDIVE       SUNNY     84  61  45 E8        30.15F
MILES CITY     MOSUNNY   87  63  44 E12       30.09F
BAKER          SUNNY     83  64  52 S12G21    30.18F
$$

CITY           SKY/WX    TMP DP  RH WIND       PRES   REMARKS
BILLINGS       MOSUNNY   79  59  50 N7        30.11F
GREAT FALLS    SUNNY     81  54  39 SE10      30.07F
REGINA         PTSUNNY   77  59  53 SE17G25   30.23F
ESTEVAN        PTSUNNY   73  64  73 E14       30.24F
$$



USA.gov is the U.S. government's official web portal to all federal, state and local government web resources and services.